Wind_Speed
53 47 51 76 97 99 101 102 99 95 94 96 96 89 83 87 88 81 76 76 74 72 69 66 65 64 64 68 68 66 68 67 65 63 65 65 65 64 63 62 63 62 62 65
54 49 52 61 86 101 102 103 97 98 100 102 96 97 92 90 88 85 81 79 77 76 73 71 68 65 68 71 67 66 66 69 70 65 65 64 67 67 66 65 64 65 67 70
59 59 58 54 70 95 104 101 101 102 103 107 99 96 97 95 89 86 89 85 84 82 80 77 72 72 74 75 73 70 70 70 70 69 70 68 68 67 69 70 71 70 71 72
65 64 62 58 56 76 100 103 107 107 109 108 100 99 101 99 97 91 90 92 90 89 88 86 77 75 78 80 77 73 75 75 74 72 76 75 75 73 73 73 73 73 74 70
69 69 66 65 59 63 83 104 108 108 109 107 107 106 99 98 94 97 96 98 98 95 94 91 84 81 83 85 82 79 79 80 77 77 79 79 80 77 77 77 76 76 73 71
75 77 72 67 67 62 67 88 106 109 110 115 106 107 96 99 93 100 103 104 102 99 97 97 93 85 85 89 88 85 84 85 83 81 81 82 81 79 78 79 77 76 73 72
82 81 80 76 73 69 66 73 91 107 111 108 101 109 99 101 97 101 110 106 101 102 102 101 96 91 90 93 91 92 90 89 88 86 85 85 84 81 82 79 77 75 75 75
84 85 84 83 80 75 73 73 83 96 103 105 106 110 98 99 103 110 113 106 105 102 100 101 93 93 92 94 93 91 90 91 90 89 87 84 85 84 80 77 77 77 78 77
84 80 88 87 83 83 75 82 74 85 95 108 109 110 103 102 103 106 115 108 110 107 103 101 101 102 99 95 90 88 89 90 93 94 91 85 83 82 82 80 80 81 81 82
78 81 86 88 92 91 89 83 86 84 82 95 100 106 102 109 112 105 113 105 109 110 105 103 103 106 106 100 92 90 90 91 94 98 92 88 86 86 85 85 86 86 86 87
76 79 82 91 96 95 94 96 94 91 87 86 85 96 99 109 113 115 117 117 115 112 110 108 105 105 109 105 100 95 94 95 98 100 95 93 92 91 90 90 91 91 92 92
72 75 80 87 92 100 99 101 102 99 95 92 88 81 91 101 112 112 117 122 118 118 116 111 99 96 108 112 104 102 102 102 100 100 97 97 97 96 95 96 95 95 96 95
71 77 79 80 88 96 107 111 110 106 105 102 95 81 89 93 98 106 111 119 118 121 118 113 108 110 111 110 106 102 101 100 103 103 101 100 99 99 99 98 99 98 97 96
79 79 83 86 87 96 105 111 115 113 109 108 100 89 91 96 96 97 102 107 117 120 124 117 110 110 114 113 113 111 107 106 104 103 103 100 100 101 100 99 98 97 96 95
83 84 89 87 90 95 100 103 111 116 113 113 103 100 97 105 103 104 105 108 107 107 117 120 118 110 109 115 116 116 113 109 107 106 104 103 101 99 97 96 96 94 95 94
90 85 93 91 92 96 102 104 108 114 116 119 114 109 104 108 109 109 108 110 111 111 110 114 119 114 106 100 102 107 107 104 102 100 101 100 97 97 97 96 95 94 94 95
86 87 89 87 96 101 103 98 107 112 118 119 118 113 117 112 113 115 115 111 111 107 105 114 110 113 108 109 110 101 98 94 93 94 93 96 96 96 94 94 96 96 96 96
80 79 84 81 99 105 90 102 109 111 111 115 117 114 115 122 124 119 120 119 117 116 113 108 105 110 103 101 101 105 99 96 95 94 95 96 97 94 95 98 97 98 100 102
68 75 73 75 91 98 96 102 107 112 112 116 119 119 117 119 122 128 125 125 123 116 115 109 113 109 107 106 112 107 101 97 96 96 98 102 99 99 101 101 103 104 105 106
59 66 69 68 75 81 89 104 112 120 121 118 119 120 116 118 121 127 133 126 126 123 121 114 114 110 110 113 115 117 115 99 99 101 105 107 104 105 106 107 107 108 106 106
51 55 61 64 66 61 78 96 110 113 112 115 119 116 115 116 123 127 129 127 123 126 126 124 122 120 119 117 120 123 118 113 109 109 111 111 109 111 110 110 110 110 109 108
41 45 52 57 58 56 66 84 99 105 109 110 120 117 115 118 120 120 121 123 123 119 120 119 119 120 121 122 123 124 122 118 117 117 117 115 114 113 111 110 108 103 98 90
33 38 42 42 49 53 58 68 84 94 95 99 110 115 115 114 114 115 114 115 118 114 113 117 117 114 114 115 115 117 119 114 111 111 111 111 109 107 105 101 94 85 79 80
23 30 33 36 46 47 51 57 69 77 87 90 94 104 110 112 110 113 113 112 110 105 105 109 107 108 108 109 109 108 107 105 103 104 102 99 97 93 86 78 73 67 67 63
22 23 23 31 31 30 39 48 57 62 68 73 79 87 92 101 105 106 107 105 105 106 100 98 96 97 100 102 101 100 98 97 98 95 89 85 79 68 62 60 59 60 58 49
16 16 17 19 21 31 34 38 44 50 54 63 68 71 75 79 85 88 93 95 100 102 100 89 95 98 99 96 92 90 91 90 86 81 74 68 59 54 54 53 57 54 52 44
Wind_Direction
237 238 230 225 221 221 223 222 223 225 227 224 223 223 225 235 235 233 234 237 241 244 242 245 246 247 249 252 252 254 257 258 263 265 265 267 272 274 277 280 283 286 293 297
235 239 238 229 223 222 223 224 223 226 228 231 224 223 224 229 234 236 236 237 239 243 245 244 246 249 250 253 253 254 256 258 261 266 269 270 273 275 277 282 284 286 291 294
230 237 240 237 228 222 222 223 225 226 228 230 230 227 227 229 233 236 238 238 239 242 245 244 244 248 251 253 254 256 257 260 264 267 269 272 276 278 280 282 285 288 291 294
228 235 239 240 236 228 223 223 225 226 228 230 231 230 229 230 231 234 239 237 240 241 244 245 243 246 251 255 258 259 261 263 265 267 269 272 276 278 280 282 284 287 290 291
230 231 235 239 238 234 224 224 224 227 230 232 231 232 232 234 234 238 239 241 239 241 243 246 245 246 249 254 256 258 260 263 265 267 269 270 273 277 281 282 284 285 288 290
231 230 232 235 238 236 231 228 225 226 228 231 231 235 233 237 236 238 241 241 242 243 243 243 245 248 249 253 257 258 260 262 264 265 268 270 272 275 277 279 281 285 286 286
230 231 231 231 233 235 233 231 230 227 229 232 233 238 229 235 235 238 239 242 242 244 245 247 246 248 248 253 257 259 259 261 263 264 266 269 272 273 274 277 280 281 283 285
229 229 231 232 231 232 235 234 232 232 231 230 230 233 233 236 234 235 239 239 243 243 246 251 252 252 251 250 254 257 261 263 264 265 265 268 271 273 275 277 279 281 282 284
233 227 232 234 234 235 232 236 238 235 233 231 231 233 233 233 238 239 241 241 244 245 246 247 252 254 252 252 253 256 260 264 266 266 266 268 270 273 275 277 278 280 281 283
234 228 232 232 235 235 234 236 235 237 237 236 233 234 233 232 233 236 245 243 243 245 245 247 249 253 254 254 255 257 259 262 264 267 268 270 272 273 276 277 278 280 281 282
235 229 230 232 234 234 236 235 238 236 235 238 233 235 236 235 236 237 236 240 244 246 247 249 250 254 258 256 254 255 257 259 261 265 269 272 273 274 276 277 277 278 280 281
238 234 227 233 235 235 236 240 237 238 235 234 234 228 236 237 239 239 240 242 243 247 249 248 249 252 255 258 257 256 255 256 260 264 266 269 271 273 274 276 278 279 281 283
241 236 230 229 234 237 234 235 238 237 238 239 234 229 238 237 239 240 243 242 245 246 246 247 246 243 250 255 257 258 259 261 262 264 267 269 271 273 275 276 277 279 281 282
238 237 232 228 231 236 237 236 238 239 238 239 238 232 235 243 241 241 242 247 246 247 247 248 246 248 252 254 257 258 259 258 260 264 266 269 271 273 274 276 277 278 280 282
240 235 234 228 228 232 234 237 237 237 239 240 241 239 238 239 240 240 243 240 245 248 250 249 246 245 249 254 256 259 261 261 262 263 267 270 271 272 273 275 277 280 281 283
248 239 234 230 229 228 233 234 237 237 235 239 237 237 235 242 241 243 245 246 245 245 250 252 251 248 247 250 257 259 263 266 268 268 268 269 271 273 276 278 279 281 283 285
249 246 240 232 233 230 229 232 235 237 239 236 234 236 239 237 242 244 244 246 250 250 251 254 254 254 249 249 251 255 260 262 265 268 269 270 271 272 275 277 278 281 283 286
253 248 243 232 233 233 230 229 234 235 237 239 237 235 236 238 238 240 245 246 247 248 250 254 258 260 259 257 256 255 257 260 263 265 268 270 271 273 275 276 279 282 283 286
249 251 246 237 232 233 229 231 232 236 234 237 240 237 235 239 241 240 238 245 248 249 252 253 256 257 261 263 262 259 254 255 259 264 267 268 270 273 275 278 280 282 285 287
248 247 248 244 238 231 227 230 231 232 234 235 237 238 236 237 241 243 243 236 244 247 250 251 253 257 259 259 261 263 264 263 263 265 267 270 273 275 277 279 282 283 286 288
248 246 247 246 243 233 225 228 233 235 236 233 238 237 239 238 239 241 243 246 241 244 248 250 251 253 256 258 261 264 267 268 269 268 269 271 273 275 278 280 282 285 287 287
255 251 247 246 245 237 227 227 231 235 235 231 236 238 236 238 239 240 243 244 246 243 244 247 250 251 252 257 261 264 266 267 268 270 271 272 274 276 278 280 282 285 286 285
254 253 253 248 247 242 235 228 231 234 238 235 236 237 239 239 240 242 242 243 245 244 245 248 250 252 255 257 258 262 265 266 267 269 271 273 275 276 278 281 284 284 282 280
262 257 253 252 245 241 237 235 233 233 234 236 238 239 239 241 241 241 243 244 247 246 244 245 246 249 252 254 256 259 262 266 268 269 271 273 276 278 280 281 279 278 276 277
277 267 258 256 258 252 245 238 237 235 235 239 239 240 242 242 243 244 245 247 247 250 248 247 249 250 252 253 257 259 261 263 265 268 271 273 274 276 276 276 279 281 279 281
276 271 266 261 255 246 240 238 239 238 233 232 235 237 239 241 244 246 247 248 248 249 251 251 249 249 251 251 253 258 261 263 266 269 272 274 275 275 278 285 287 284 284 284
Height
10720 10728 10734 10734 10746 10755 10765 10776 10786 10801 10805 10805 10816 10833 10839 10829 10841 10855 10864 10872 10879 10882 10890 10898 10905 10912 10913 10908 10918 10923 10923 10928 10931 10933 10934 10936 10937 10939 10938 10938 10938 10938 10935 10933
10711 10720 10715 10718 10727 10738 10747 10760 10782 10786 10785 10783 10806 10814 10820 10818 10828 10844 10851 10857 10866 10868 10876 10885 10894 10899 10896 10893 10904 10911 10913 10916 10918 10920 10921 10926 10925 10928 10927 10927 10926 10926 10924 10922
10696 10699 10700 10705 10710 10719 10731 10747 10764 10767 10764 10757 10783 10799 10807 10811 10818 10830 10833 10844 10849 10855 10859 10868 10883 10885 10881 10880 10888 10898 10900 10903 10905 10909 10907 10912 10912 10915 10914 10913 10913 10914 10913 10911
10680 10682 10688 10692 10699 10703 10717 10729 10729 10740 10738 10744 10770 10780 10783 10796 10807 10811 10814 10828 10833 10839 10841 10849 10867 10874 10869 10864 10874 10885 10883 10886 10890 10893 10894 10898 10898 10901 10900 10900 10900 10901 10900 10898
10667 10665 10671 10677 10686 10687 10703 10700 10713 10723 10725 10738 10742 10752 10776 10784 10799 10803 10802 10805 10815 10820 10824 10834 10852 10859 10857 10852 10858 10869 10869 10871 10876 10879 10878 10882 10885 10888 10886 10886 10884 10886 10886 10884
10646 10646 10652 10664 10667 10675 10680 10683 10693 10699 10703 10699 10736 10738 10774 10770 10790 10780 10781 10782 10791 10803 10808 10816 10831 10845 10848 10841 10844 10852 10856 10855 10860 10864 10863 10865 10870 10876 10873 10871 10870 10871 10871 10871
10619 10629 10636 10641 10649 10657 10664 10667 10675 10678 10684 10710 10733 10708 10762 10752 10765 10761 10747 10759 10772 10785 10790 10793 10813 10829 10836 10833 10834 10833 10837 10838 10843 10848 10850 10849 10855 10859 10857 10857 10858 10857 10857 10857
10598 10608 10619 10625 10631 10639 10646 10649 10652 10663 10672 10695 10692 10687 10741 10732 10737 10730 10724 10745 10753 10763 10775 10774 10796 10806 10814 10815 10818 10821 10820 10820 10824 10828 10834 10839 10838 10838 10842 10844 10842 10842 10842 10841
10581 10607 10598 10607 10622 10622 10636 10626 10646 10638 10650 10659 10675 10686 10711 10711 10710 10714 10702 10733 10737 10745 10759 10767 10767 10773 10784 10795 10809 10810 10808 10806 10801 10803 10813 10824 10825 10824 10825 10828 10828 10828 10827 10825
10559 10588 10588 10595 10588 10600 10607 10621 10613 10622 10636 10644 10664 10671 10693 10682 10688 10701 10690 10707 10712 10722 10736 10745 10747 10741 10755 10776 10797 10800 10796 10793 10786 10777 10793 10803 10807 10808 10810 10812 10810 10811 10810 10808
10544 10561 10571 10569 10574 10580 10585 10589 10593 10602 10611 10620 10648 10659 10663 10661 10667 10673 10672 10675 10688 10703 10715 10724 10731 10737 10723 10745 10773 10781 10781 10777 10769 10766 10778 10782 10785 10788 10790 10792 10793 10792 10791 10789
10524 10539 10552 10550 10555 10560 10572 10570 10573 10575 10589 10597 10613 10638 10627 10639 10643 10654 10658 10657 10670 10678 10686 10704 10723 10721 10701 10702 10733 10751 10759 10761 10762 10761 10765 10766 10767 10768 10769 10771 10772 10770 10768 10769
10498 10506 10522 10531 10531 10532 10534 10534 10539 10552 10563 10576 10593 10628 10611 10617 10623 10630 10628 10642 10647 10652 10664 10681 10693 10684 10686 10690 10701 10718 10724 10738 10746 10747 10748 10750 10751 10748 10749 10751 10749 10748 10749 10747
10466 10476 10485 10498 10505 10502 10506 10519 10522 10533 10546 10555 10575 10606 10604 10594 10603 10606 10611 10612 10623 10629 10632 10655 10675 10672 10670 10679 10681 10688 10701 10712 10721 10728 10732 10733 10732 10731 10731 10730 10729 10729 10728 10727
10432 10446 10447 10466 10479 10476 10480 10492 10497 10511 10530 10536 10565 10579 10588 10564 10569 10573 10576 10589 10595 10605 10606 10627 10645 10656 10656 10657 10666 10668 10677 10688 10698 10706 10710 10710 10710 10709 10709 10710 10709 10709 10707 10706
10393 10412 10415 10435 10446 10449 10449 10465 10472 10478 10496 10504 10529 10544 10544 10539 10556 10561 10567 10565 10576 10590 10593 10599 10611 10638 10652 10646 10641 10646 10657 10667 10675 10683 10689 10685 10685 10685 10686 10688 10687 10686 10685 10683
10361 10373 10386 10414 10413 10413 10426 10453 10447 10449 10458 10474 10494 10522 10519 10526 10526 10536 10543 10553 10557 10574 10580 10570 10589 10599 10625 10637 10636 10646 10640 10647 10652 10657 10659 10661 10669 10668 10672 10670 10667 10668 10667 10666
10329 10338 10351 10382 10373 10372 10431 10417 10415 10425 10437 10444 10463 10482 10485 10487 10493 10514 10515 10524 10534 10540 10552 10571 10578 10574 10594 10606 10617 10620 10631 10633 10634 10639 10642 10639 10641 10649 10647 10645 10649 10648 10648 10645
10309 10308 10320 10338 10342 10362 10386 10394 10398 10396 10415 10415 10424 10446 10468 10463 10464 10480 10501 10496 10511 10529 10536 10555 10553 10567 10570 10574 10569 10586 10602 10614 10621 10626 10624 10617 10626 10629 10626 10631 10628 10627 10625 10622
10285 10287 10291 10306 10313 10334 10365 10358 10355 10353 10360 10385 10395 10408 10431 10441 10445 10441 10452 10493 10496 10507 10514 10532 10535 10545 10547 10548 10548 10552 10563 10593 10601 10603 10596 10592 10604 10604 10604 10604 10605 10603 10602 10600
10266 10269 10272 10278 10288 10316 10326 10330 10325 10330 10353 10371 10365 10389 10406 10416 10416 10422 10436 10453 10486 10491 10496 10508 10519 10523 10524 10529 10528 10531 10544 10558 10572 10574 10572 10576 10582 10580 10582 10582 10581 10581 10579 10574
10252 10255 10256 10261 10271 10287 10294 10296 10295 10299 10318 10342 10340 10354 10371 10378 10387 10403 10413 10432 10447 10466 10474 10481 10486 10496 10505 10507 10508 10508 10518 10534 10541 10545 10547 10552 10555 10559 10560 10562 10561 10559 10555 10548
10238 10240 10243 10250 10254 10262 10269 10276 10275 10284 10300 10318 10318 10327 10341 10352 10368 10379 10395 10406 10416 10435 10451 10456 10466 10480 10486 10492 10493 10493 10501 10513 10519 10519 10521 10525 10532 10536 10539 10541 10539 10535 10529 10523
10229 10227 10230 10234 10231 10240 10250 10257 10258 10266 10275 10286 10299 10309 10319 10329 10346 10358 10365 10376 10389 10408 10423 10431 10447 10455 10461 10466 10472 10479 10486 10494 10497 10498 10502 10508 10512 10516 10520 10520 10517 10512 10504 10504
10218 10218 10220 10220 10225 10235 10236 10240 10242 10253 10266 10276 10285 10290 10299 10309 10323 10337 10347 10361 10376 10382 10398 10415 10431 10440 10442 10444 10452 10460 10470 10472 10473 10479 10487 10491 10494 10499 10500 10499 10496 10489 10486 10489
10212 10211 10211 10213 10216 10215 10219 10227 10232 10238 10249 10253 10262 10270 10279 10292 10305 10319 10329 10343 10354 10361 10371 10397 10406 10409 10412 10426 10438 10446 10446 10448 10456 10462 10467 10471 10477 10480 10480 10479 10474 10472 10470 10472